owner,sensor,date,latitude,longitude,vertical_datum,wind_speed,wind_to_direction,wind_speed_of_gust,qcFlag 
TABS,ioos:station:wmo:42043:1,2017-03-01T00:00:00Z,28.9818,-94.9186,4.0,6.631274387,156.2570983,7.58,'11111222,11111222,11111222' 
TABS,ioos:station:wmo:42043:1,2017-03-01T00:30:00Z,28.9818,-94.9186,4.0,6.220803807,158.3014709,7.29,'11111222,11111222,11111222' 
TABS,ioos:station:wmo:42043:1,2017-03-01T01:00:00Z,28.9818,-94.9186,4.0,6.198169084,164.7532349,7.46,'11111222,11111222,11111222' 
TABS,ioos:station:wmo:42043:1,2017-03-01T01:30:00Z,28.9818,-94.9186,4.0,5.602901034,166.5840583,6.59,'11111222,11111222,11111222' 
TABS,ioos:station:wmo:42043:1,2017-03-01T02:00:00Z,28.9818,-94.9186,4.0,5.250190473,168.2408521,6.5,'11111222,11111222,11111222' 
TABS,ioos:station:wmo:42043:1,2017-03-01T02:30:00Z,28.9818,-94.9186,4.0,4.993766114,162.3998245,5.83,'11111222,11111222,11111222' 
TABS,ioos:station:wmo:42043:1,2017-03-01T03:00:00Z,28.9818,-94.9186,4.0,4.962146713,162.4051425,5.76,'11111222,11111222,11111222' 
TABS,ioos:station:wmo:42043:1,2017-03-01T03:30:00Z,28.9818,-94.9186,4.0,6.126279458,157.7473042,7.29,'11111222,11111222,11111222' 
TABS,ioos:station:wmo:42043:1,2017-03-01T04:00:00Z,28.9818,-94.9186,4.0,4.959032164,167.4213046,5.79,'11111222,11111222,11111222' 
TABS,ioos:station:wmo:42043:1,2017-03-01T04:30:00Z,28.9818,-94.9186,4.0,4.270550316,175.9719562,4.9,'11111222,11111222,11111222' 
TABS,ioos:station:wmo:42043:1,2017-03-01T05:00:00Z,28.9818,-94.9186,4.0,3.956083922,166.7016712,4.65,'11111222,11111222,11111222' 
TABS,ioos:station:wmo:42043:1,2017-03-01T05:30:00Z,28.9818,-94.9186,4.0,3.983616447,164.5685232,4.82,'11111222,11111222,11111222' 
TABS,ioos:station:wmo:42043:1,2017-03-01T06:00:00Z,28.9818,-94.9186,4.0,2.974155342,167.1788966,3.6,'11111222,11111222,11111222' 
TABS,ioos:station:wmo:42043:1,2017-03-01T06:30:00Z,28.9818,-94.9186,4.0,4.115264269,169.7825581,4.86,'11111222,11111222,11111222' 
TABS,ioos:station:wmo:42043:1,2017-03-01T07:00:00Z,28.9818,-94.9186,4.0,4.355433388,173.8053062,5.2,'11111222,11111222,11111222' 
TABS,ioos:station:wmo:42043:1,2017-03-01T07:30:00Z,28.9818,-94.9186,4.0,4.650096773,180.3698547,5.82,'11111222,11111222,11111222' 
TABS,ioos:station:wmo:42043:1,2017-03-01T08:00:00Z,28.9818,-94.9186,4.0,5.801810062,176.3438024,6.65,'11111222,11111222,11111222' 
TABS,ioos:station:wmo:42043:1,2017-03-01T08:30:00Z,28.9818,-94.9186,4.0,5.881028822,181.0719428,7.33,'11111222,11111222,11111222' 
TABS,ioos:station:wmo:42043:1,2017-03-01T09:00:00Z,28.9818,-94.9186,4.0,5.463744137,187.2552795,6.44,'11111222,11111222,11111222' 
TABS,ioos:station:wmo:42043:1,2017-03-01T09:30:00Z,28.9818,-94.9186,4.0,5.452568202,187.1643109,6.54,'11111222,11111222,11111222' 
TABS,ioos:station:wmo:42043:1,2017-03-01T10:00:00Z,28.9818,-94.9186,4.0,6.600189391,180.4342601,7.91,'11111222,11111222,11111222' 
TABS,ioos:station:wmo:42043:1,2017-03-01T10:30:00Z,28.9818,-94.9186,4.0,5.265140074,188.2995794,6.38,'11111222,11111222,11111222' 
TABS,ioos:station:wmo:42043:1,2017-03-01T11:00:00Z,28.9818,-94.9186,4.0,4.716407531,188.0443933,5.38,'11111222,11111222,11111222' 
TABS,ioos:station:wmo:42043:1,2017-03-01T11:30:00Z,28.9818,-94.9186,4.0,5.574746631,182.3647556,6.59,'11111222,11111222,11111222' 
TABS,ioos:station:wmo:42043:1,2017-03-01T12:00:00Z,28.9818,-94.9186,4.0,5.948108943,189.8742466,7.1,'11111222,11111222,11111222' 
TABS,ioos:station:wmo:42043:1,2017-03-01T12:30:00Z,28.9818,-94.9186,4.0,4.254621017,202.5267916,5.33,'11111222,11111222,11111222' 
TABS,ioos:station:wmo:42043:1,2017-03-01T13:00:00Z,28.9818,-94.9186,4.0,3.014000664,248.7987588,4.36,'11111222,11111222,11111222' 
TABS,ioos:station:wmo:42043:1,2017-03-01T13:30:00Z,28.9818,-94.9186,4.0,4.960645119,322.2059349,6.79,'11111222,11111222,11111222' 
TABS,ioos:station:wmo:42043:1,2017-03-01T14:00:00Z,28.9818,-94.9186,4.0,0.720069441,269.2042783,1.44,'11111222,11111222,11111222' 
TABS,ioos:station:wmo:42043:1,2017-03-01T14:30:00Z,28.9818,-94.9186,4.0,0.601664358,195.4223357,1.0,'11111222,11111222,11111222' 
TABS,ioos:station:wmo:42043:1,2017-03-01T15:00:00Z,28.9818,-94.9186,4.0,2.157452201,167.9611265,2.66,'11111222,11111222,11111222' 
TABS,ioos:station:wmo:42043:1,2017-03-01T15:30:00Z,28.9818,-94.9186,4.0,1.918593235,170.0960504,2.69,'11111222,11111222,11111222' 
TABS,ioos:station:wmo:42043:1,2017-03-01T16:00:00Z,28.9818,-94.9186,4.0,2.573441276,165.370004,3.03,'11111222,11111222,11111222' 
TABS,ioos:station:wmo:42043:1,2017-03-01T16:30:00Z,28.9818,-94.9186,4.0,2.802802169,167.8483716,3.26,'11111222,11111222,11111222' 
TABS,ioos:station:wmo:42043:1,2017-03-01T17:00:00Z,28.9818,-94.9186,4.0,2.788691449,175.4754526,3.37,'11111222,11111222,11111222' 
TABS,ioos:station:wmo:42043:1,2017-03-01T17:30:00Z,28.9818,-94.9186,4.0,4.215447782,165.4365519,4.81,'11111222,11111222,11111222' 
TABS,ioos:station:wmo:42043:1,2017-03-01T18:00:00Z,28.9818,-94.9186,4.0,3.692830892,173.6257658,4.56,'11111222,11111222,11111222' 
TABS,ioos:station:wmo:42043:1,2017-03-01T18:30:00Z,28.9818,-94.9186,4.0,2.663906905,167.4247744,3.1,'11111222,11111222,11111222' 
TABS,ioos:station:wmo:42043:1,2017-03-01T19:00:00Z,28.9818,-94.9186,4.0,3.094672842,187.2400309,3.84,'11111222,11111222,11111222' 
TABS,ioos:station:wmo:42043:1,2017-03-01T19:30:00Z,28.9818,-94.9186,4.0,2.60403533,185.9516188,3.13,'11111222,11111222,11111222' 
TABS,ioos:station:wmo:42043:1,2017-03-01T20:00:00Z,28.9818,-94.9186,4.0,2.666777081,175.9146032,3.13,'11111222,11111222,11111222' 
TABS,ioos:station:wmo:42043:1,2017-03-01T20:30:00Z,28.9818,-94.9186,4.0,2.241428116,177.9548068,2.96,'11111222,11111222,11111222' 
TABS,ioos:station:wmo:42043:1,2017-03-01T21:00:00Z,28.9818,-94.9186,4.0,2.809786469,204.8322612,3.36,'11111222,11111222,11111222' 
TABS,ioos:station:wmo:42043:1,2017-03-01T21:30:00Z,28.9818,-94.9186,4.0,3.032655602,212.0655981,3.68,'11111222,11111222,11111222' 
TABS,ioos:station:wmo:42043:1,2017-03-01T22:00:00Z,28.9818,-94.9186,4.0,2.288864347,190.5737092,3.06,'11111222,11111222,11111222' 
TABS,ioos:station:wmo:42043:1,2017-03-01T22:30:00Z,28.9818,-94.9186,4.0,1.85569394,210.434375,2.3,'11111222,11111222,11111222' 
TABS,ioos:station:wmo:42043:1,2017-03-01T23:00:00Z,28.9818,-94.9186,4.0,1.31605471,233.6526268,2.04,'11111222,11111222,11111222' 
TABS,ioos:station:wmo:42043:1,2017-03-01T23:30:00Z,28.9818,-94.9186,4.0,1.070560601,310.8333996,2.17,'11111222,11111222,11111222' 
TABS,ioos:station:wmo:42043:1,2017-03-02T00:00:00Z,28.9818,-94.9186,4.0,3.214622839,22.49620844,5.1,'11111222,11111222,11111222' 
TABS,ioos:station:wmo:42043:1,2017-03-02T00:30:00Z,28.9818,-94.9186,4.0,6.716583953,7.44221338,8.1,'11111222,11111222,11111222' 
TABS,ioos:station:wmo:42043:1,2017-03-02T01:00:00Z,28.9818,-94.9186,4.0,6.709284612,11.69489872,7.72,'11111222,11111222,11111222' 
TABS,ioos:station:wmo:42043:1,2017-03-02T01:30:00Z,28.9818,-94.9186,4.0,8.522171085,8.434128347,10.36,'11111222,11111222,11111222' 
TABS,ioos:station:wmo:42043:1,2017-03-02T02:00:00Z,28.9818,-94.9186,4.0,9.726731208,13.19305775,11.58,'11111222,11111222,11111222' 
TABS,ioos:station:wmo:42043:1,2017-03-02T02:30:00Z,28.9818,-94.9186,4.0,10.89529256,16.80477118,13.77,'11111222,11111222,11111222' 
TABS,ioos:station:wmo:42043:1,2017-03-02T03:00:00Z,28.9818,-94.9186,4.0,11.82144238,31.1214041,14.01,'11111222,11111222,11111222' 
TABS,ioos:station:wmo:42043:1,2017-03-02T03:30:00Z,28.9818,-94.9186,4.0,10.93713857,32.83251457,12.79,'11111222,11111222,11111222' 
TABS,ioos:station:wmo:42043:1,2017-03-02T04:00:00Z,28.9818,-94.9186,4.0,11.36276375,34.8925863,13.63,'11111222,11111222,11111222' 
TABS,ioos:station:wmo:42043:1,2017-03-02T04:30:00Z,28.9818,-94.9186,4.0,10.92125451,34.78113051,13.79,'11111222,11111222,11111222' 
TABS,ioos:station:wmo:42043:1,2017-03-02T05:00:00Z,28.9818,-94.9186,4.0,10.82224561,29.38343008,12.89,'11111222,11111222,11111222' 
TABS,ioos:station:wmo:42043:1,2017-03-02T05:30:00Z,28.9818,-94.9186,4.0,10.67610416,38.45835323,12.86,'11111222,11111222,11111222' 
TABS,ioos:station:wmo:42043:1,2017-03-02T06:00:00Z,28.9818,-94.9186,4.0,11.64146468,38.26749876,13.88,'11111222,11111222,11111222' 
TABS,ioos:station:wmo:42043:1,2017-03-02T06:30:00Z,28.9818,-94.9186,4.0,11.49139243,40.02231965,13.56,'11111222,11111222,11111222' 
TABS,ioos:station:wmo:42043:1,2017-03-02T07:00:00Z,28.9818,-94.9186,4.0,11.23509234,40.99372212,13.87,'11111222,11111222,11111222' 
TABS,ioos:station:wmo:42043:1,2017-03-02T07:30:00Z,28.9818,-94.9186,4.0,11.07152203,42.29078526,13.12,'11111222,11111222,11111222' 
TABS,ioos:station:wmo:42043:1,2017-03-02T08:00:00Z,28.9818,-94.9186,4.0,11.55035064,39.51945859,13.56,'11111222,11111222,11111222' 
TABS,ioos:station:wmo:42043:1,2017-03-02T08:30:00Z,28.9818,-94.9186,4.0,11.24264204,40.96029152,13.04,'11111222,11111222,11111222' 
TABS,ioos:station:wmo:42043:1,2017-03-02T09:00:00Z,28.9818,-94.9186,4.0,10.86243527,38.08286328,13.19,'11111222,11111222,11111222' 
TABS,ioos:station:wmo:42043:1,2017-03-02T09:30:00Z,28.9818,-94.9186,4.0,11.17301213,44.34697735,13.77,'11111222,11111222,11111222' 
TABS,ioos:station:wmo:42043:1,2017-03-02T10:00:00Z,28.9818,-94.9186,4.0,11.90171836,45.78264202,13.76,'11111222,11111222,11111222' 
TABS,ioos:station:wmo:42043:1,2017-03-02T10:30:00Z,28.9818,-94.9186,4.0,11.9359122,47.78411118,13.35,'11111222,11111222,11111222' 
TABS,ioos:station:wmo:42043:1,2017-03-02T11:00:00Z,28.9818,-94.9186,4.0,11.54209686,52.03760862,14.24,'11111222,11111222,11111222' 
TABS,ioos:station:wmo:42043:1,2017-03-02T11:30:00Z,28.9818,-94.9186,4.0,11.53516363,48.65488161,13.37,'11111222,11111222,11111222' 
TABS,ioos:station:wmo:42043:1,2017-03-02T12:00:00Z,28.9818,-94.9186,4.0,11.58733792,50.18143905,13.98,'11111222,11111222,11111222' 
TABS,ioos:station:wmo:42043:1,2017-03-02T12:30:00Z,28.9818,-94.9186,4.0,11.29414893,53.42400515,13.53,'11111222,11111222,11111222' 
TABS,ioos:station:wmo:42043:1,2017-03-02T13:00:00Z,28.9818,-94.9186,4.0,11.43523065,56.087246,13.35,'11111222,11111222,11111222' 
TABS,ioos:station:wmo:42043:1,2017-03-02T13:30:00Z,28.9818,-94.9186,4.0,11.1819721,54.20585628,13.05,'11111222,11111222,11111222' 
TABS,ioos:station:wmo:42043:1,2017-03-02T14:00:00Z,28.9818,-94.9186,4.0,11.14967264,55.96753085,13.18,'11111222,11111222,11111222' 
TABS,ioos:station:wmo:42043:1,2017-03-02T14:30:00Z,28.9818,-94.9186,4.0,10.93267579,55.1321496,13.08,'11111222,11111222,11111222' 
TABS,ioos:station:wmo:42043:1,2017-03-02T15:00:00Z,28.9818,-94.9186,4.0,10.24744358,58.52767913,12.49,'11111222,11111222,11111222' 
TABS,ioos:station:wmo:42043:1,2017-03-02T15:30:00Z,28.9818,-94.9186,4.0,10.76584414,62.50632469,12.91,'11111222,11111222,11111222' 
TABS,ioos:station:wmo:42043:1,2017-03-02T16:00:00Z,28.9818,-94.9186,4.0,11.15001794,67.48253938,13.05,'11111222,11111222,11111222' 
TABS,ioos:station:wmo:42043:1,2017-03-02T16:30:00Z,28.9818,-94.9186,4.0,10.39323338,66.34500372,12.06,'11111222,11111222,11111222' 
TABS,ioos:station:wmo:42043:1,2017-03-02T17:00:00Z,28.9818,-94.9186,4.0,10.47091209,65.39265288,12.89,'11111222,11111222,11111222' 
TABS,ioos:station:wmo:42043:1,2017-03-02T17:30:00Z,28.9818,-94.9186,4.0,9.955119286,63.12572161,12.01,'11111222,11111222,11111222' 
TABS,ioos:station:wmo:42043:1,2017-03-02T18:00:00Z,28.9818,-94.9186,4.0,10.08547966,61.57961192,12.17,'11111222,11111222,11111222' 
TABS,ioos:station:wmo:42043:1,2017-03-02T18:30:00Z,28.9818,-94.9186,4.0,9.302607161,60.29296443,11.07,'11111222,11111222,11111222' 
TABS,ioos:station:wmo:42043:1,2017-03-02T19:00:00Z,28.9818,-94.9186,4.0,9.055318879,61.79316796,11.3,'11111222,11111222,11111222' 
TABS,ioos:station:wmo:42043:1,2017-03-02T19:30:00Z,28.9818,-94.9186,4.0,9.05132587,58.04794972,10.91,'11111222,11111222,11111222' 
TABS,ioos:station:wmo:42043:1,2017-03-02T20:00:00Z,28.9818,-94.9186,4.0,8.65231183,59.43338067,11.22,'11111222,11111222,11111222' 
TABS,ioos:station:wmo:42043:1,2017-03-02T20:30:00Z,28.9818,-94.9186,4.0,8.404974717,54.00236113,10.0,'11111222,11111222,11111222' 
TABS,ioos:station:wmo:42043:1,2017-03-02T21:00:00Z,28.9818,-94.9186,4.0,8.065860153,55.65942695,9.95,'11111222,11111222,11111222' 
TABS,ioos:station:wmo:42043:1,2017-03-02T21:30:00Z,28.9818,-94.9186,4.0,7.506117505,53.45036344,9.28,'11111222,11111222,11111222' 
TABS,ioos:station:wmo:42043:1,2017-03-02T22:00:00Z,28.9818,-94.9186,4.0,7.008708868,57.94227831,8.41,'11111222,11111222,11111222' 
TABS,ioos:station:wmo:42043:1,2017-03-02T22:30:00Z,28.9818,-94.9186,4.0,6.659496978,62.74199675,8.06,'11111222,11111222,11111222' 
TABS,ioos:station:wmo:42043:1,2017-03-02T23:00:00Z,28.9818,-94.9186,4.0,6.944501422,65.31669493,8.5,'11111222,11111222,11111222' 
TABS,ioos:station:wmo:42043:1,2017-03-02T23:30:00Z,28.9818,-94.9186,4.0,6.285896913,68.53674335,7.67,'11111222,11111222,11111222' 
TABS,ioos:station:wmo:42043:1,2017-03-03T00:00:00Z,28.9818,-94.9186,4.0,5.483402229,69.61479573,6.57,'11111222,11111222,11111222' 
TABS,ioos:station:wmo:42043:1,2017-03-03T00:30:00Z,28.9818,-94.9186,4.0,5.7644861,68.95498116,6.84,'11111222,11111222,11111222' 
TABS,ioos:station:wmo:42043:1,2017-03-03T01:00:00Z,28.9818,-94.9186,4.0,5.621503358,63.2522656,7.31,'11111222,11111222,11111222' 
TABS,ioos:station:wmo:42043:1,2017-03-03T01:30:00Z,28.9818,-94.9186,4.0,5.616342226,56.25300207,6.84,'11111222,11111222,11111222' 
TABS,ioos:station:wmo:42043:1,2017-03-03T02:00:00Z,28.9818,-94.9186,4.0,5.818333095,80.00303161,7.54,'11111222,11111222,11111222' 
TABS,ioos:station:wmo:42043:1,2017-03-03T02:30:00Z,28.9818,-94.9186,4.0,5.843842914,74.82188769,7.11,'11111222,11111222,11111222' 
TABS,ioos:station:wmo:42043:1,2017-03-03T03:00:00Z,28.9818,-94.9186,4.0,7.292221884,65.96534713,9.01,'11111222,11111222,11111222' 
TABS,ioos:station:wmo:42043:1,2017-03-03T03:30:00Z,28.9818,-94.9186,4.0,8.168537201,65.78788139,10.31,'11111222,11111222,11111222' 
TABS,ioos:station:wmo:42043:1,2017-03-03T04:00:00Z,28.9818,-94.9186,4.0,8.264726251,48.18766451,10.03,'11111222,11111222,11111222' 
TABS,ioos:station:wmo:42043:1,2017-03-03T04:30:00Z,28.9818,-94.9186,4.0,8.868444057,58.60377587,10.32,'11111222,11111222,11111222' 
TABS,ioos:station:wmo:42043:1,2017-03-03T05:00:00Z,28.9818,-94.9186,4.0,8.381718201,62.57858218,9.76,'11111222,11111222,11111222' 
TABS,ioos:station:wmo:42043:1,2017-03-03T05:30:00Z,28.9818,-94.9186,4.0,8.427253408,66.87246147,9.96,'11111222,11111222,11111222' 
TABS,ioos:station:wmo:42043:1,2017-03-03T06:00:00Z,28.9818,-94.9186,4.0,8.815452342,60.73040621,10.43,'11111222,11111222,11111222' 
TABS,ioos:station:wmo:42043:1,2017-03-03T06:30:00Z,28.9818,-94.9186,4.0,8.485022098,66.81877592,10.66,'11111222,11111222,11111222' 
TABS,ioos:station:wmo:42043:1,2017-03-03T07:00:00Z,28.9818,-94.9186,4.0,8.579213251,68.45865354,10.24,'11111222,11111222,11111222' 
TABS,ioos:station:wmo:42043:1,2017-03-03T07:30:00Z,28.9818,-94.9186,4.0,9.205444041,67.5856417,11.12,'11111222,11111222,11111222' 
TABS,ioos:station:wmo:42043:1,2017-03-03T08:00:00Z,28.9818,-94.9186,4.0,9.646662635,69.74250093,11.48,'11111222,11111222,11111222' 
TABS,ioos:station:wmo:42043:1,2017-03-03T08:30:00Z,28.9818,-94.9186,4.0,9.9610642,68.68955821,11.49,'11111222,11111222,11111222' 
TABS,ioos:station:wmo:42043:1,2017-03-03T09:00:00Z,28.9818,-94.9186,4.0,10.06721908,73.85096211,11.78,'11111222,11111222,11111222' 
TABS,ioos:station:wmo:42043:1,2017-03-03T09:30:00Z,28.9818,-94.9186,4.0,9.859989858,71.49117034,11.62,'11111222,11111222,11111222' 
TABS,ioos:station:wmo:42043:1,2017-03-03T10:00:00Z,28.9818,-94.9186,4.0,9.892805467,73.79964555,12.25,'11111222,11111222,11111222' 
TABS,ioos:station:wmo:42043:1,2017-03-03T10:30:00Z,28.9818,-94.9186,4.0,9.756433775,74.90931587,12.17,'11111222,11111222,11111222' 
TABS,ioos:station:wmo:42043:1,2017-03-03T11:00:00Z,28.9818,-94.9186,4.0,10.08512271,77.3413958,11.47,'11111222,11111222,11111222' 
TABS,ioos:station:wmo:42043:1,2017-03-03T11:30:00Z,28.9818,-94.9186,4.0,9.741175494,78.93191211,12.19,'11111222,11111222,11111222' 
TABS,ioos:station:wmo:42043:1,2017-03-03T12:00:00Z,28.9818,-94.9186,4.0,9.628883632,82.66054281,11.6,'11111222,11111222,11111222' 
TABS,ioos:station:wmo:42043:1,2017-03-03T12:30:00Z,28.9818,-94.9186,4.0,9.302698533,81.90433651,11.24,'11111222,11111222,11111222' 
TABS,ioos:station:wmo:42043:1,2017-03-03T13:00:00Z,28.9818,-94.9186,4.0,9.615451107,83.31064464,11.33,'11111222,11111222,11111222' 
TABS,ioos:station:wmo:42043:1,2017-03-03T13:30:00Z,28.9818,-94.9186,4.0,10.20510656,82.17121614,12.11,'11111222,11111222,11111222' 
TABS,ioos:station:wmo:42043:1,2017-03-03T14:00:00Z,28.9818,-94.9186,4.0,9.938219156,80.09181315,12.04,'11111222,11111222,11111222' 
TABS,ioos:station:wmo:42043:1,2017-03-03T14:30:00Z,28.9818,-94.9186,4.0,10.37975915,87.5148274,12.76,'11111222,11111222,11111222' 
TABS,ioos:station:wmo:42043:1,2017-03-03T15:00:00Z,28.9818,-94.9186,4.0,10.19001963,89.88712457,12.44,'11111222,11111222,11111222' 
TABS,ioos:station:wmo:42043:1,2017-03-03T15:30:00Z,28.9818,-94.9186,4.0,10.31,90.00042092,12.33,'11111222,11111222,11111222' 
TABS,ioos:station:wmo:42043:1,2017-03-03T16:00:00Z,28.9818,-94.9186,4.0,10.87244223,87.25823492,12.61,'11111222,11111222,11111222' 
TABS,ioos:station:wmo:42043:1,2017-03-03T16:30:00Z,28.9818,-94.9186,4.0,10.25017561,89.66419377,12.92,'11111222,11111222,11111222' 
TABS,ioos:station:wmo:42043:1,2017-03-03T17:00:00Z,28.9818,-94.9186,4.0,10.96380408,92.87586788,12.6,'11111222,11111222,11111222' 
 
DISCLAIMER: The Gulf of Mexico Coastal and Ocean Observing (GCOOS) Data Portal aggregates data from the regional data providers for the convenience of all data users. Data published on this website should not be used for navigation or certain other uses as we cannot guarantee data accuracy or availability. The data and delivery services are provided 'as is' without warranty of any kind. Data Source: Gulf of Mexico Coastal Ocean Observing System Data Portal (http://data.gcoos.org/) 
